Cloud_Cover
4 4 0 0 0 0 0 0 0 0 0 0 0 0 0 0 0 0 0 0 0 1 1 1 40 66 61 100 100 100 100 100 100 100 100 100 100 100 100 100 100 100 100 100
0 0 0 0 0 0 0 0 0 0 0 0 0 0 0 0 0 0 0 0 0 0 0 0 0 0 2 100 100 100 100 100 100 100 100 93 5 5 100 100 100 100 100 100
0 0 0 0 0 0 0 0 0 0 0 0 0 0 0 0 0 0 0 0 0 0 0 0 0 0 0 13 92 100 100 100 100 100 100 100 67 10 95 100 100 100 100 100
0 0 0 0 0 0 0 0 0 0 0 0 0 0 0 0 0 0 0 0 0 0 0 0 0 0 0 6 95 100 100 100 90 83 9 100 34 63 78 70 100 91 100 100
0 0 0 0 0 0 0 0 0 0 0 0 0 0 0 0 0 0 0 0 0 0 0 0 0 0 0 0 5 7 20 62 66 5 58 92 100 83 65 20 54 100 100 100
0 0 0 0 0 0 0 0 0 0 0 0 0 0 0 0 0 0 0 0 0 0 0 0 0 0 0 15 18 6 96 18 70 5 14 56 31 66 75 100 100 100 100 100
0 0 2 0 0 0 0 0 0 0 0 0 0 0 0 0 0 0 0 0 0 0 0 0 0 0 0 0 8 6 10 10 13 12 7 15 5 59 100 100 100 100 100 100
0 0 0 0 0 0 0 0 0 0 0 0 0 0 0 0 10 2 5 1 0 0 0 0 0 0 0 0 0 5 7 32 5 5 8 15 60 100 100 100 100 100 100 100
3 5 0 0 4 5 5 3 5 5 0 0 0 0 0 10 69 4 59 100 51 2 2 4 0 0 0 2 2 1 5 5 5 72 6 5 87 66 100 100 100 100 100 100
5 5 4 5 5 5 5 36 16 5 5 0 4 1 62 100 66 5 74 99 73 49 25 0 0 0 0 12 76 2 49 80 76 27 96 95 93 100 100 100 100 100 100 100
5 4 11 5 5 5 36 79 100 8 5 0 1 10 100 90 84 100 91 97 98 100 100 97 82 75 1 0 4 1 0 0 25 86 5 27 100 100 100 100 100 100 100 100
98 80 98 84 98 77 100 100 100 51 1 5 46 99 88 100 100 100 100 100 100 100 100 100 100 98 7 0 0 0 6 0 6 6 5 20 98 100 100 100 100 100 100 100
100 100 100 100 92 100 100 100 39 5 0 42 26 83 73 87 100 100 100 100 100 100 100 100 100 100 40 15 24 64 49 2 0 3 10 10 59 100 100 100 100 100 100 100
59 98 100 100 100 100 100 100 33 5 0 0 0 0 0 34 57 100 100 100 100 100 100 100 100 100 100 100 100 100 94 8 0 12 82 91 37 85 100 100 100 100 100 100
5 6 98 100 100 100 100 88 5 5 0 0 0 0 10 46 100 100 100 100 100 100 100 100 100 100 100 100 100 100 100 58 3 3 5 25 18 67 100 100 100 100 100 100
3 2 56 100 100 100 100 100 91 17 36 5 3 0 0 3 86 100 100 100 100 100 100 100 100 100 100 100 100 100 100 96 56 6 59 38 20 71 100 100 100 100 100 100
0 5 60 93 100 100 100 100 100 81 14 5 2 0 0 0 18 93 100 100 100 100 100 100 100 100 100 100 100 100 100 100 100 99 68 5 6 68 98 100 100 100 100 100
1 4 5 90 98 100 100 100 100 100 100 75 5 0 0 0 16 64 87 100 100 100 100 100 100 100 100 100 100 100 100 100 95 100 54 100 23 91 100 100 100 100 98 100
4 0 4 5 36 100 100 100 100 100 100 14 4 0 0 0 0 10 13 100 100 100 100 100 100 100 100 100 100 100 100 100 100 100 100 93 57 96 43 60 45 33 82 100
5 2 0 5 9 97 100 100 100 100 90 20 5 0 0 0 0 0 4 16 65 100 100 100 100 100 100 100 100 100 100 100 100 100 100 100 100 100 95 62 100 52 5 5
7 5 3 5 5 86 100 100 100 100 100 100 8 1 0 0 0 0 0 0 19 25 43 68 100 100 100 100 100 100 100 100 100 100 100 100 100 100 100 100 100 100 96 71
8 5 5 5 6 77 100 100 100 100 100 92 99 5 5 1 0 0 0 2 5 19 18 34 33 49 89 100 100 100 100 100 100 100 100 100 100 100 100 100 100 100 100 100
96 82 92 81 73 70 99 100 100 100 100 100 73 32 5 5 4 0 0 0 1 20 8 5 5 5 5 32 85 100 100 100 100 100 100 100 100 100 100 100 100 100 100 100
71 89 56 10 55 96 98 100 100 100 100 100 100 18 5 22 4 0 0 3 5 1 0 4 1 3 3 1 15 52 78 95 100 100 100 100 100 100 100 100 100 100 100 100
100 100 56 31 92 58 93 100 100 100 100 99 13 7 5 6 4 0 5 44 32 16 3 0 0 0 0 0 3 21 37 67 93 69 75 96 100 100 100 100 100 100 100 100
100 100 100 74 71 92 100 100 100 100 100 48 5 5 5 5 2 5 0 7 18 5 5 5 5 1 0 0 0 0 0 5 18 47 40 82 100 100 100 100 100 100 100 100
100 100 100 99 81 100 100 100 100 100 100 72 43 5 5 5 5 5 0 67 96 55 59 27 6 0 0 0 0 0 0 0 26 21 3 18 47 99 100 99 100 100 100 100